Back to Top

Language: 

My Weather Underground Personal Weather Station Historical Data with Graphs...

Delerius Weather Station Historical Data
Daily Summary for October 2, 2017 Units:  Metric    English   Both
« Previous Day
Next Day »
Daily Weekly Monthly Yearly Custom
  High: Low: Average:
Temperature: 15.3 °C 10.7 °C 13.5 °C
Dew Point: 12.2 °C 8.1 °C 9.4 °C
Humidity: 90 % 66 % 77 %
Wind Speed: 38.6 km/h 9.7 km/h 23.5 km/h
Wind Gust: 69.2 km/h - -
Wind:- - West
Pressure: 1013.1 hPa 1003.3 hPa -
Precipitation: 0.51 mm    
Historical Graphs
 
 
Tabular Data for October 2, 2017
Time Temperature Dew Point Pressure Wind Wind Speed Wind Gust Humidity Rainfall Rate (Hourly) solar Conditions
00:02 15.3 °C 12.2 °C 1003.3 hPa West 20.9 km/h 37 km/h 82 % 0 mm 0 W/m2
00:07 15.2 °C 11.9 °C 1003.3 hPa West 20.9 km/h 43.5 km/h 81 % 0 mm 0 W/m2
00:12 15.3 °C 11.9 °C 1003.6 hPa WSW 25.7 km/h 43.5 km/h 80 % 0 mm 0 W/m2
00:17 15.3 °C 11.7 °C 1003.6 hPa WSW 25.7 km/h 43.5 km/h 79 % 0 mm 0 W/m2
00:22 15.3 °C 11.9 °C 1003.6 hPa West 20.9 km/h 41.8 km/h 80 % 0 mm 0 W/m2
00:27 15.2 °C 11.8 °C 1003.6 hPa WSW 20.9 km/h 48.3 km/h 80 % 0 mm 0 W/m2
00:32 15.2 °C 11.8 °C 1003.6 hPa West 22.5 km/h 48.3 km/h 80 % 0 mm 0 W/m2
00:37 15.1 °C 11.5 °C 1003.6 hPa West 24.1 km/h 46.7 km/h 79 % 0 mm 0 W/m2
00:42 14.9 °C 11.1 °C 1003.6 hPa West 24.1 km/h 46.7 km/h 78 % 0 mm 0 W/m2
00:47 14.8 °C 10.4 °C 1003.9 hPa West 24.1 km/h 46.7 km/h 75 % 0 mm 0 W/m2
00:52 14.7 °C 10.3 °C 1003.6 hPa West 24.1 km/h 45.1 km/h 75 % 0 mm 0 W/m2
00:57 14.7 °C 10.3 °C 1003.6 hPa West 22.5 km/h 37 km/h 75 % 0 mm 0 W/m2
01:07 14.6 °C 10.2 °C 1003.9 hPa West 24.1 km/h 41.8 km/h 75 % 0 mm 0 W/m2
01:12 14.5 °C 10.1 °C 1003.9 hPa West 20.9 km/h 33.8 km/h 75 % 0 mm 0 W/m2
01:17 14.4 °C 10 °C 1003.6 hPa West 19.3 km/h 33.8 km/h 75 % 0 mm 0 W/m2
01:22 14.4 °C 10.2 °C 1003.9 hPa West 17.7 km/h 38.6 km/h 76 % 0 mm 0 W/m2
01:27 14.3 °C 9.9 °C 1003.9 hPa West 20.9 km/h 38.6 km/h 75 % 0 mm 0 W/m2
01:32 14.3 °C 10.1 °C 1003.9 hPa WSW 19.3 km/h 35.4 km/h 76 % 0 mm 0 W/m2
01:37 14.2 °C 10 °C 1003.9 hPa West 19.3 km/h 38.6 km/h 76 % 0 mm 0 W/m2
01:42 14.2 °C 10.2 °C 1003.9 hPa West 20.9 km/h 38.6 km/h 77 % 0 mm 0 W/m2
01:47 14.2 °C 10.4 °C 1004.3 hPa West 20.9 km/h 35.4 km/h 78 % 0 mm 0 W/m2
01:52 14.2 °C 10.6 °C 1004.3 hPa West 17.7 km/h 32.2 km/h 79 % 0 mm 0 W/m2
01:57 14.2 °C 10.8 °C 1004.3 hPa WSW 20.9 km/h 38.6 km/h 80 % 0 mm 0 W/m2
02:02 14.2 °C 10.6 °C 1004.3 hPa WSW 22.5 km/h 38.6 km/h 79 % 0 mm 0 W/m2
02:07 14.1 °C 10.5 °C 1004.3 hPa WSW 20.9 km/h 38.6 km/h 79 % 0 mm 0 W/m2
02:12 14 °C 10.4 °C 1004.3 hPa WSW 20.9 km/h 33.8 km/h 79 % 0 mm 0 W/m2
02:17 13.9 °C 10.3 °C 1004.3 hPa West 19.3 km/h 35.4 km/h 79 % 0 mm 0 W/m2
02:22 13.9 °C 9.9 °C 1004.3 hPa West 19.3 km/h 35.4 km/h 77 % 0 mm 0 W/m2
02:27 13.9 °C 9.9 °C 1004.3 hPa WSW 17.7 km/h 35.4 km/h 77 % 0 mm 0 W/m2
02:32 13.9 °C 9.9 °C 1004.3 hPa WSW 14.5 km/h 29 km/h 77 % 0 mm 0 W/m2
02:37 13.9 °C 9.9 °C 1004.3 hPa West 14.5 km/h 30.6 km/h 77 % 0 mm 0 W/m2
02:42 13.9 °C 9.9 °C 1004.6 hPa West 17.7 km/h 30.6 km/h 77 % 0 mm 0 W/m2
02:47 13.9 °C 9.9 °C 1004.3 hPa West 17.7 km/h 40.2 km/h 77 % 0 mm 0 W/m2
02:52 13.8 °C 9.8 °C 1004.3 hPa West 19.3 km/h 40.2 km/h 77 % 0 mm 0 W/m2
02:57 13.8 °C 9.8 °C 1004.3 hPa West 20.9 km/h 37 km/h 77 % 0 mm 0 W/m2
03:02 13.8 °C 10.1 °C 1004.6 hPa WSW 19.3 km/h 33.8 km/h 78 % 0 mm 0 W/m2
03:08 13.7 °C 9.9 °C 1004.6 hPa WSW 17.7 km/h 33.8 km/h 78 % 0 mm 0 W/m2
03:13 13.7 °C 9.7 °C 1005 hPa West 17.7 km/h 37 km/h 77 % 0 mm 0 W/m2
03:18 13.7 °C 9.6 °C 1004.6 hPa West 19.3 km/h 37 km/h 76 % 0 mm 0 W/m2
03:23 13.6 °C 9.4 °C 1004.6 hPa WSW 19.3 km/h 35.4 km/h 76 % 0 mm 0 W/m2
03:28 13.6 °C 9.2 °C 1005 hPa WSW 20.9 km/h 41.8 km/h 75 % 0 mm 0 W/m2
03:33 13.6 °C 9.1 °C 1004.6 hPa WSW 22.5 km/h 41.8 km/h 74 % 0 mm 0 W/m2
03:38 13.5 °C 8.9 °C 1004.6 hPa WSW 20.9 km/h 38.6 km/h 74 % 0 mm 0 W/m2
03:43 13.4 °C 8.7 °C 1004.6 hPa West 24.1 km/h 38.6 km/h 73 % 0 mm 0 W/m2
03:48 13.3 °C 8.6 °C 1004.6 hPa West 24.1 km/h 38.6 km/h 73 % 0 mm 0 W/m2
03:53 13.3 °C 8.6 °C 1004.6 hPa West 24.1 km/h 43.5 km/h 73 % 0 mm 0 W/m2
03:58 13.3 °C 8.3 °C 1004.6 hPa West 25.7 km/h 46.7 km/h 72 % 0 mm 0 W/m2
04:03 13.3 °C 8.3 °C 1004.6 hPa WSW 27.4 km/h 51.5 km/h 72 % 0 mm 0 W/m2
04:08 13.3 °C 8.3 °C 1004.6 hPa WSW 29 km/h 51.5 km/h 72 % 0 mm 0 W/m2
04:13 13.2 °C 8.3 °C 1004.6 hPa WSW 25.7 km/h 46.7 km/h 72 % 0 mm 0 W/m2
04:18 13.2 °C 8.3 °C 1004.6 hPa WSW 22.5 km/h 41.8 km/h 72 % 0 mm 0 W/m2
04:22 13.1 °C 8.2 °C 1004.6 hPa WSW 22.5 km/h 38.6 km/h 72 % 0 mm 0 W/m2
04:23 13.1 °C 8.2 °C 1004.6 hPa WSW 22.5 km/h 38.6 km/h 72 % 0 mm 0 W/m2
04:28 13.1 °C 8.2 °C 1004.6 hPa WSW 24.1 km/h 41.8 km/h 72 % 0 mm 0 W/m2
04:32 13.2 °C 8.1 °C 1004.6 hPa WSW 27.4 km/h 43.5 km/h 71 % 0 mm 0 W/m2
04:37 13.3 °C 8.2 °C 1004.6 hPa WSW 25.7 km/h 43.5 km/h 71 % 0 mm 0 W/m2
04:42 13.3 °C 8.2 °C 1004.6 hPa West 22.5 km/h 46.7 km/h 71 % 0 mm 0 W/m2
04:47 13.2 °C 8.3 °C 1004.6 hPa West 24.1 km/h 46.7 km/h 72 % 0 mm 0 W/m2
04:52 13.2 °C 8.3 °C 1004.6 hPa West 24.1 km/h 46.7 km/h 72 % 0 mm 0 W/m2
04:57 13.2 °C 8.3 °C 1004.6 hPa West 25.7 km/h 46.7 km/h 72 % 0 mm 0 W/m2
05:02 13.2 °C 8.3 °C 1004.6 hPa West 27.4 km/h 40.2 km/h 72 % 0 mm 0 W/m2
05:07 13.2 °C 8.3 °C 1004.6 hPa West 24.1 km/h 38.6 km/h 72 % 0 mm 0 W/m2
05:12 13.2 °C 8.3 °C 1004.6 hPa WSW 24.1 km/h 37 km/h 72 % 0 mm 0 W/m2
05:17 13.2 °C 8.4 °C 1004.6 hPa West 24.1 km/h 40.2 km/h 73 % 0 mm 0 W/m2
05:22 13.2 °C 8.4 °C 1004.6 hPa West 24.1 km/h 40.2 km/h 73 % 0 mm 0 W/m2
05:27 13.2 °C 8.4 °C 1004.6 hPa WSW 24.1 km/h 40.2 km/h 73 % 0 mm 0 W/m2
05:32 13.2 °C 8.4 °C 1004.6 hPa WSW 25.7 km/h 41.8 km/h 73 % 0 mm 0 W/m2
05:37 13.2 °C 8.4 °C 1004.6 hPa WSW 27.4 km/h 46.7 km/h 73 % 0 mm 0 W/m2
05:42 13.3 °C 8.6 °C 1004.6 hPa West 29 km/h 49.9 km/h 73 % 0 mm 0 W/m2
05:47 13.2 °C 8.4 °C 1004.6 hPa WSW 27.4 km/h 49.9 km/h 73 % 0 mm 0 W/m2
05:52 13.2 °C 8.7 °C 1004.6 hPa West 24.1 km/h 41.8 km/h 74 % 0 mm 0 W/m2
05:58 13.1 °C 8.6 °C 1004.6 hPa WSW 22.5 km/h 41.8 km/h 74 % 0 mm 0 W/m2
06:03 13.1 °C 8.6 °C 1005 hPa WSW 20.9 km/h 40.2 km/h 74 % 0 mm 0 W/m2
06:08 13.1 °C 8.8 °C 1005 hPa WSW 22.5 km/h 43.5 km/h 75 % 0 mm 0 W/m2
06:13 13.1 °C 8.6 °C 1005 hPa WSW 25.7 km/h 43.5 km/h 74 % 0 mm 0 W/m2
06:18 13.1 °C 8.6 °C 1004.6 hPa WSW 27.4 km/h 43.5 km/h 74 % 0 mm 0 W/m2
06:23 13 °C 8.7 °C 1004.6 hPa WSW 25.7 km/h 43.5 km/h 75 % 0 mm 0 W/m2
06:28 12.9 °C 8.6 °C 1004.6 hPa WSW 22.5 km/h 38.6 km/h 75 % 0 mm 0 W/m2
06:33 12.8 °C 8.5 °C 1004.6 hPa WSW 24.1 km/h 45.1 km/h 75 % 0 mm 0 W/m2
06:38 12.8 °C 8.5 °C 1004.6 hPa WSW 27.4 km/h 49.9 km/h 75 % 0 mm 0 W/m2
06:43 12.9 °C 8.6 °C 1004.6 hPa West 29 km/h 49.9 km/h 75 % 0 mm 0 W/m2
06:48 12.9 °C 8.6 °C 1004.6 hPa West 29 km/h 46.7 km/h 75 % 0 mm 0 W/m2
06:53 12.9 °C 8.6 °C 1005 hPa West 30.6 km/h 48.3 km/h 75 % 0 mm 0 W/m2
06:58 12.9 °C 8.6 °C 1005 hPa WSW 29 km/h 51.5 km/h 75 % 0 mm 0 W/m2
07:03 12.9 °C 8.8 °C 1005 hPa WSW 29 km/h 51.5 km/h 76 % 0 mm 0 W/m2
07:08 12.8 °C 8.7 °C 1005 hPa WSW 27.4 km/h 45.1 km/h 76 % 0 mm 5 W/m2
07:13 12.7 °C 8.6 °C 1005 hPa WSW 27.4 km/h 43.5 km/h 76 % 0 mm 7 W/m2
07:18 12.7 °C 8.8 °C 1005.3 hPa WSW 27.4 km/h 43.5 km/h 77 % 0 mm 9 W/m2
07:23 12.6 °C 8.7 °C 1005.3 hPa West 25.7 km/h 48.3 km/h 77 % 0 mm 11 W/m2
07:28 12.5 °C 8.8 °C 1005.3 hPa West 24.1 km/h 48.3 km/h 78 % 0 mm 12 W/m2
07:33 12.4 °C 8.8 °C 1005.3 hPa West 22.5 km/h 43.5 km/h 79 % 0 mm 16 W/m2
07:38 12.4 °C 8.8 °C 1005.3 hPa West 22.5 km/h 43.5 km/h 79 % 0 mm 21 W/m2
07:43 12.5 °C 8.9 °C 1005.3 hPa WSW 24.1 km/h 48.3 km/h 79 % 0 mm 39 W/m2
07:48 12.6 °C 9.1 °C 1005.3 hPa WSW 24.1 km/h 48.3 km/h 79 % 0 mm 25 W/m2
07:53 12.6 °C 8.9 °C 1005.3 hPa WSW 22.5 km/h 43.5 km/h 78 % 0 mm 26 W/m2
07:58 12.6 °C 9.1 °C 1005.3 hPa WSW 22.5 km/h 43.5 km/h 79 % 0 mm 33 W/m2
08:03 12.7 °C 9.2 °C 1005.3 hPa WSW 25.7 km/h 46.7 km/h 79 % 0 mm 105 W/m2
08:08 12.8 °C 9.1 °C 1005.3 hPa West 27.4 km/h 46.7 km/h 78 % 0 mm 141 W/m2
08:13 12.9 °C 9.2 °C 1005.3 hPa West 24.1 km/h 43.5 km/h 78 % 0 mm 146 W/m2
08:18 13 °C 9.3 °C 1005.3 hPa West 24.1 km/h 48.3 km/h 78 % 0 mm 174 W/m2
08:23 13.1 °C 9.3 °C 1005.3 hPa West 25.7 km/h 48.3 km/h 78 % 0 mm 160 W/m2
08:28 13.2 °C 9.4 °C 1005.6 hPa West 24.1 km/h 43.5 km/h 78 % 0 mm 169 W/m2
08:29 13.2 °C 9.3 °C 1005.6 hPa West 24.1 km/h 43.5 km/h 77 % 0 mm 169 W/m2
08:34 13.3 °C 9.3 °C 1005.6 hPa West 24.1 km/h 43.5 km/h 77 % 0 mm 183 W/m2
08:39 13.4 °C 9.4 °C 1005.6 hPa West 25.7 km/h 51.5 km/h 77 % 0 mm 193 W/m2
08:44 13.4 °C 9.4 °C 1005.6 hPa West 29 km/h 51.5 km/h 77 % 0 mm 213 W/m2
08:49 13.5 °C 9.3 °C 1005.6 hPa West 27.4 km/h 49.9 km/h 76 % 0 mm 225 W/m2
08:54 13.6 °C 9.4 °C 1005.6 hPa WSW 27.4 km/h 49.9 km/h 76 % 0 mm 236 W/m2
08:59 13.7 °C 9.6 °C 1006 hPa WSW 29 km/h 49.9 km/h 76 % 0 mm 250 W/m2
09:04 13.6 °C 9.7 °C 1006 hPa West 29 km/h 49.9 km/h 77 % 0 mm 265 W/m2
09:09 13.5 °C 9.6 °C 1006 hPa West 29 km/h 51.5 km/h 77 % 0 mm 272 W/m2
09:14 13.5 °C 9.7 °C 1006.3 hPa West 32.2 km/h 51.5 km/h 78 % 0 mm 288 W/m2
09:19 13.5 °C 9.7 °C 1006.3 hPa West 32.2 km/h 51.5 km/h 78 % 0 mm 295 W/m2
09:24 13.6 °C 9.8 °C 1006.3 hPa West 25.7 km/h 48.3 km/h 78 % 0 mm 309 W/m2
09:29 13.7 °C 9.9 °C 1006.3 hPa West 25.7 km/h 48.3 km/h 78 % 0 mm 323 W/m2
09:34 13.8 °C 10.1 °C 1006.3 hPa West 27.4 km/h 48.3 km/h 78 % 0 mm 336 W/m2
09:39 13.9 °C 9.9 °C 1006.3 hPa West 27.4 km/h 51.5 km/h 77 % 0 mm 348 W/m2
09:44 13.9 °C 9.9 °C 1006.3 hPa West 29 km/h 57.9 km/h 77 % 0 mm 360 W/m2
09:49 14 °C 10.1 °C 1006.3 hPa West 30.6 km/h 57.9 km/h 77 % 0 mm 385 W/m2
09:54 14 °C 10.1 °C 1006.7 hPa West 32.2 km/h 57.9 km/h 77 % 0 mm 399 W/m2
09:59 14.1 °C 10.1 °C 1006.7 hPa West 33.8 km/h 61.2 km/h 77 % 0 mm 408 W/m2
10:04 14 °C 10.2 °C 1006.7 hPa West 30.6 km/h 61.2 km/h 78 % 0 mm 527 W/m2
10:09 14.1 °C 10.1 °C 1006.7 hPa West 30.6 km/h 49.9 km/h 77 % 0 mm 244 W/m2
10:14 14.1 °C 10.1 °C 1006.7 hPa West 33.8 km/h 49.9 km/h 77 % 0 mm 299 W/m2
10:19 13.9 °C 10.1 °C 1006.3 hPa West 32.2 km/h 59.5 km/h 78 % 0 mm 441 W/m2
10:24 13.9 °C 10.1 °C 1006.7 hPa West 29 km/h 59.5 km/h 78 % 0 mm 427 W/m2
10:29 14.1 °C 10.1 °C 1006.7 hPa West 29 km/h 48.3 km/h 77 % 0 mm 332 W/m2
10:34 14.2 °C 10.2 °C 1006.7 hPa West 30.6 km/h 48.3 km/h 77 % 0 mm 151 W/m2
10:39 14.1 °C 10.1 °C 1006.7 hPa West 30.6 km/h 51.5 km/h 77 % 0 mm 515 W/m2
10:44 14.1 °C 10.3 °C 1007 hPa West 30.6 km/h 51.5 km/h 78 % 0 mm 533 W/m2
10:49 14.2 °C 10.2 °C 1006.7 hPa West 32.2 km/h 48.3 km/h 77 % 0 mm 522 W/m2
10:54 14.3 °C 10.5 °C 1006.7 hPa West 29 km/h 49.9 km/h 78 % 0 mm 619 W/m2
10:59 14.4 °C 10.4 °C 1006.7 hPa West 27.4 km/h 51.5 km/h 77 % 0 mm 320 W/m2
11:04 14.3 °C 10.1 °C 1006.7 hPa West 30.6 km/h 54.7 km/h 76 % 0 mm 241 W/m2
11:05 14.3 °C 10.1 °C 1006.7 hPa West 30.6 km/h 54.7 km/h 76 % 0 mm 339 W/m2
11:10 14.2 °C 9.8 °C 1006.7 hPa West 32.2 km/h 54.7 km/h 75 % 0 mm 278 W/m2
11:15 14.2 °C 10 °C 1006.7 hPa West 30.6 km/h 54.7 km/h 76 % 0 mm 431 W/m2
11:20 14.4 °C 10.2 °C 1006.7 hPa West 29 km/h 48.3 km/h 76 % 0 mm 494 W/m2
11:25 14.6 °C 10.2 °C 1006.3 hPa West 27.4 km/h 46.7 km/h 75 % 0 mm 570 W/m2
11:30 14.8 °C 10.2 °C 1006.3 hPa West 29 km/h 49.9 km/h 74 % 0 mm 432 W/m2
11:35 14.9 °C 10.3 °C 1006.7 hPa West 29 km/h 49.9 km/h 74 % 0 mm 403 W/m2
11:40 14.8 °C 10 °C 1006.7 hPa West 29 km/h 46.7 km/h 73 % 0 mm 364 W/m2
11:45 14.7 °C 9.9 °C 1006.7 hPa West 32.2 km/h 54.7 km/h 73 % 0 mm 318 W/m2
11:50 14.7 °C 9.9 °C 1006.3 hPa West 30.6 km/h 54.7 km/h 73 % 0 mm 308 W/m2
11:55 14.7 °C 9.9 °C 1006.7 hPa West 29 km/h 56.3 km/h 73 % 0 mm 450 W/m2
12:00 14.8 °C 10 °C 1006.3 hPa West 30.6 km/h 56.3 km/h 73 % 0 mm 601 W/m2
12:05 14.8 °C 9.6 °C 1006.7 hPa West 32.2 km/h 61.2 km/h 71 % 0 mm 274 W/m2
12:10 14.7 °C 9.5 °C 1006.7 hPa West 33.8 km/h 61.2 km/h 71 % 0 mm 272 W/m2
12:15 14.8 °C 9.8 °C 1006.3 hPa West 32.2 km/h 54.7 km/h 72 % 0 mm 455 W/m2
12:20 14.9 °C 9.9 °C 1006.7 hPa West 32.2 km/h 54.7 km/h 72 % 0 mm 225 W/m2
12:25 14.6 °C 9.6 °C 1006.7 hPa West 33.8 km/h 64.4 km/h 72 % 0 mm 179 W/m2
12:30 14.5 °C 9.7 °C 1006.7 hPa West 32.2 km/h 64.4 km/h 73 % 0 mm 287 W/m2
12:35 14.6 °C 10 °C 1006.7 hPa West 30.6 km/h 54.7 km/h 74 % 0 mm 622 W/m2
12:40 14.8 °C 10 °C 1006.7 hPa West 33.8 km/h 59.5 km/h 73 % 0 mm 585 W/m2
12:45 15 °C 10 °C 1006.3 hPa West 33.8 km/h 59.5 km/h 72 % 0 mm 592 W/m2
12:50 15.2 °C 10 °C 1006.7 hPa West 32.2 km/h 49.9 km/h 71 % 0 mm 621 W/m2
12:55 15.3 °C 10.1 °C 1007 hPa West 33.8 km/h 54.7 km/h 71 % 0 mm 461 W/m2
13:00 15.2 °C 10.2 °C 1007 hPa West 32.2 km/h 57.9 km/h 72 % 0 mm 229 W/m2
13:05 14.7 °C 10.3 °C 1007 hPa West 30.6 km/h 57.9 km/h 75 % 0 mm 172 W/m2
13:10 14.3 °C 9.9 °C 1007 hPa West 29 km/h 49.9 km/h 75 % 0 mm 297 W/m2
13:15 14.4 °C 10.2 °C 1007 hPa West 27.4 km/h 49.9 km/h 76 % 0 mm 619 W/m2
13:20 14.7 °C 10.3 °C 1006.7 hPa West 25.7 km/h 51.5 km/h 75 % 0 mm 371 W/m2
13:25 14.9 °C 10.1 °C 1007 hPa West 27.4 km/h 53.1 km/h 73 % 0 mm 322 W/m2
13:30 15.2 °C 10.6 °C 1007 hPa West 29 km/h 53.1 km/h 74 % 0 mm 613 W/m2
13:33 15.2 °C 10.4 °C 1007 hPa West 30.6 km/h 53.1 km/h 73 % 0 mm 355 W/m2
13:38 14.9 °C 10.5 °C 1007.3 hPa West 30.6 km/h 53.1 km/h 75 % 0 mm 661 W/m2
13:43 14.8 °C 10.2 °C 1006.7 hPa West 30.6 km/h 51.5 km/h 74 % 0 mm 606 W/m2
13:48 14.8 °C 9.8 °C 1006.7 hPa West 29 km/h 48.3 km/h 72 % 0 mm 232 W/m2
13:53 14.9 °C 9.7 °C 1007 hPa WSW 30.6 km/h 48.3 km/h 71 % 0 mm 582 W/m2
13:58 15.1 °C 10.3 °C 1007 hPa WSW 29 km/h 46.7 km/h 73 % 0 mm 327 W/m2
14:03 15.1 °C 10.1 °C 1007.3 hPa West 29 km/h 61.2 km/h 72 % 0 mm 248 W/m2
14:08 15 °C 9.1 °C 1007 hPa West 37 km/h 66 km/h 68 % 0 mm 262 W/m2
14:13 14.9 °C 9.1 °C 1007 hPa West 35.4 km/h 66 km/h 68 % 0 mm 160 W/m2
14:18 14.7 °C 8.8 °C 1007 hPa West 30.6 km/h 53.1 km/h 68 % 0 mm 554 W/m2
14:23 14.9 °C 8.8 °C 1007.3 hPa West 35.4 km/h 56.3 km/h 67 % 0 mm 536 W/m2
14:28 15 °C 8.9 °C 1007 hPa West 38.6 km/h 61.2 km/h 67 % 0 mm 541 W/m2
14:33 15.1 °C 8.8 °C 1007 hPa West 37 km/h 61.2 km/h 66 % 0 mm 239 W/m2
14:38 15.1 °C 8.8 °C 1007.3 hPa West 35.4 km/h 61.2 km/h 66 % 0 mm 621 W/m2
14:43 15.2 °C 8.9 °C 1007.3 hPa West 35.4 km/h 61.2 km/h 66 % 0 mm 392 W/m2
14:48 15.2 °C 9.1 °C 1007.3 hPa West 35.4 km/h 54.7 km/h 67 % 0 mm 392 W/m2
14:53 15 °C 8.9 °C 1007 hPa West 37 km/h 69.2 km/h 67 % 0 mm 216 W/m2
14:58 14.8 °C 8.7 °C 1007 hPa West 38.6 km/h 69.2 km/h 67 % 0 mm 200 W/m2
15:03 14.6 °C 8.8 °C 1007 hPa West 33.8 km/h 53.1 km/h 68 % 0 mm 262 W/m2
15:08 14.4 °C 9 °C 1007.3 hPa West 32.2 km/h 53.1 km/h 70 % 0 mm 213 W/m2
15:13 14.3 °C 9.1 °C 1007.3 hPa West 32.2 km/h 53.1 km/h 71 % 0 mm 290 W/m2
15:18 14.3 °C 9.1 °C 1007.3 hPa West 30.6 km/h 49.9 km/h 71 % 0 mm 455 W/m2
15:23 14.5 °C 9.3 °C 1007.7 hPa West 25.7 km/h 45.1 km/h 71 % 0 mm 271 W/m2
15:28 14.4 °C 9.2 °C 1007.7 hPa West 24.1 km/h 48.3 km/h 71 % 0 mm 445 W/m2
15:33 14.2 °C 9 °C 1008 hPa West 27.4 km/h 49.9 km/h 71 % 0 mm 213 W/m2
15:38 14.1 °C 9.1 °C 1008 hPa West 27.4 km/h 53.1 km/h 72 % 0 mm 165 W/m2
15:43 14.1 °C 9.1 °C 1008.4 hPa West 24.1 km/h 53.1 km/h 72 % 0 mm 269 W/m2
15:48 14.4 °C 9.2 °C 1008 hPa West 20.9 km/h 40.2 km/h 71 % 0 mm 410 W/m2
15:53 14.7 °C 9.3 °C 1008 hPa West 19.3 km/h 40.2 km/h 70 % 0 mm 422 W/m2
15:58 14.8 °C 9.2 °C 1008 hPa West 20.9 km/h 38.6 km/h 69 % 0 mm 239 W/m2
16:03 14.9 °C 9.3 °C 1008 hPa West 20.9 km/h 38.6 km/h 69 % 0 mm 424 W/m2
16:08 15.1 °C 9.2 °C 1008.4 hPa West 24.1 km/h 41.8 km/h 68 % 0 mm 394 W/m2
16:13 15.1 °C 9.2 °C 1008 hPa West 24.1 km/h 46.7 km/h 68 % 0 mm 364 W/m2
16:18 14.9 °C 9.1 °C 1008 hPa West 25.7 km/h 48.3 km/h 68 % 0 mm 301 W/m2
16:23 14.8 °C 9.2 °C 1008 hPa West 25.7 km/h 48.3 km/h 69 % 0 mm 290 W/m2
16:28 14.7 °C 9.3 °C 1007.7 hPa West 24.1 km/h 46.7 km/h 70 % 0 mm 181 W/m2
16:33 14.7 °C 9.5 °C 1008 hPa West 22.5 km/h 49.9 km/h 71 % 0 mm 264 W/m2
16:39 14.6 °C 9.4 °C 1008 hPa West 25.7 km/h 49.9 km/h 71 % 0 mm 250 W/m2
16:43 14.4 °C 9.2 °C 1008 hPa West 25.7 km/h 49.9 km/h 71 % 0 mm 225 W/m2
16:49 14.2 °C 9.2 °C 1008.4 hPa West 24.1 km/h 45.1 km/h 72 % 0 mm 148 W/m2
16:54 14.1 °C 9.3 °C 1008.4 hPa West 24.1 km/h 40.2 km/h 73 % 0 mm 209 W/m2
16:59 14.1 °C 9.6 °C 1008.4 hPa West 24.1 km/h 41.8 km/h 74 % 0 mm 214 W/m2
17:04 13.9 °C 9.6 °C 1008.4 hPa West 24.1 km/h 41.8 km/h 75 % 0 mm 186 W/m2
17:09 13.8 °C 9.4 °C 1008.4 hPa West 22.5 km/h 40.2 km/h 75 % 0 mm 172 W/m2
17:14 13.8 °C 9.4 °C 1008.4 hPa West 20.9 km/h 40.2 km/h 75 % 0 mm 165 W/m2
17:19 13.8 °C 9.4 °C 1008.4 hPa West 19.3 km/h 46.7 km/h 75 % 0 mm 47 W/m2
17:24 13.7 °C 9.3 °C 1008.4 hPa West 20.9 km/h 46.7 km/h 75 % 0 mm 128 W/m2
17:29 13.7 °C 9.3 °C 1008.4 hPa West 24.1 km/h 40.2 km/h 75 % 0 mm 105 W/m2
17:34 13.7 °C 9.3 °C 1008.4 hPa West 22.5 km/h 40.2 km/h 75 % 0 mm 107 W/m2
17:39 13.6 °C 9.2 °C 1008.7 hPa West 19.3 km/h 37 km/h 75 % 0 mm 91 W/m2
17:44 13.6 °C 9.4 °C 1008.7 hPa West 19.3 km/h 37 km/h 76 % 0 mm 67 W/m2
17:49 13.6 °C 9.4 °C 1009 hPa West 17.7 km/h 30.6 km/h 76 % 0 mm 62 W/m2
17:54 13.6 °C 9.4 °C 1009 hPa West 17.7 km/h 38.6 km/h 76 % 0 mm 37 W/m2
17:59 13.5 °C 9.3 °C 1009 hPa West 20.9 km/h 38.6 km/h 76 % 0 mm 37 W/m2
18:04 13.4 °C 9.3 °C 1009 hPa West 19.3 km/h 38.6 km/h 76 % 0 mm 32 W/m2
18:09 13.3 °C 9.2 °C 1009 hPa West 16.1 km/h 32.2 km/h 76 % 0 mm 25 W/m2
18:14 13.3 °C 9.2 °C 1009 hPa West 16.1 km/h 32.2 km/h 76 % 0 mm 19 W/m2
18:19 13.2 °C 9.1 °C 1009.4 hPa West 12.9 km/h 24.1 km/h 76 % 0 mm 16 W/m2
18:24 13.1 °C 8.9 °C 1009.7 hPa West 12.9 km/h 29 km/h 76 % 0 mm 12 W/m2
18:29 13.1 °C 8.9 °C 1009.7 hPa West 12.9 km/h 29 km/h 76 % 0 mm 14 W/m2
18:34 13.1 °C 8.9 °C 1009.7 hPa West 16.1 km/h 30.6 km/h 76 % 0 mm 7 W/m2
18:39 13.1 °C 8.9 °C 1010 hPa West 16.1 km/h 30.6 km/h 76 % 0 mm 5 W/m2
18:44 13.1 °C 8.9 °C 1010 hPa West 14.5 km/h 24.1 km/h 76 % 0 mm 0 W/m2
18:49 13.1 °C 9.2 °C 1010 hPa West 17.7 km/h 38.6 km/h 77 % 0 mm 0 W/m2
18:54 13 °C 9.1 °C 1010.4 hPa West 19.3 km/h 38.6 km/h 77 % 0 mm 0 W/m2
18:59 12.9 °C 8.9 °C 1010 hPa West 19.3 km/h 35.4 km/h 77 % 0 mm 0 W/m2
19:04 12.9 °C 8.9 °C 1010 hPa West 22.5 km/h 40.2 km/h 77 % 0 mm 0 W/m2
19:10 12.9 °C 8.8 °C 1010 hPa WNW 20.9 km/h 40.2 km/h 76 % 0 mm 0 W/m2
19:15 12.9 °C 8.9 °C 1010.4 hPa WNW 20.9 km/h 37 km/h 77 % 0 mm 0 W/m2
19:20 12.9 °C 8.9 °C 1010.4 hPa WNW 20.9 km/h 37 km/h 77 % 0 mm 0 W/m2
19:25 12.8 °C 8.9 °C 1010.4 hPa West 19.3 km/h 38.6 km/h 77 % 0 mm 0 W/m2
19:30 12.8 °C 8.9 °C 1010.4 hPa WNW 20.9 km/h 38.6 km/h 77 % 0 mm 0 W/m2
19:35 12.8 °C 8.9 °C 1010.4 hPa WNW 19.3 km/h 38.6 km/h 77 % 0 mm 0 W/m2
19:40 12.8 °C 8.9 °C 1010.4 hPa West 16.1 km/h 32.2 km/h 77 % 0 mm 0 W/m2
19:45 12.7 °C 8.9 °C 1010.7 hPa West 16.1 km/h 32.2 km/h 78 % 0 mm 0 W/m2
19:50 12.7 °C 9.2 °C 1010.7 hPa West 17.7 km/h 35.4 km/h 79 % 0 mm 0 W/m2
19:55 12.7 °C 9.2 °C 1011.1 hPa WNW 17.7 km/h 35.4 km/h 79 % 0 mm 0 W/m2
20:00 12.7 °C 9.2 °C 1011.1 hPa WNW 16.1 km/h 35.4 km/h 79 % 0 mm 0 W/m2
20:05 12.7 °C 9.2 °C 1011.1 hPa WNW 16.1 km/h 32.2 km/h 79 % 0 mm 0 W/m2
20:06 12.7 °C 9.2 °C 1011.1 hPa West 16.1 km/h 32.2 km/h 79 % 0 mm 0 W/m2
20:11 12.7 °C 9.3 °C 1011.1 hPa WNW 16.1 km/h 32.2 km/h 80 % 0 mm 0 W/m2
20:21 12.5 °C 9.2 °C 1011.1 hPa WNW 14.5 km/h 30.6 km/h 80 % 0 mm 0 W/m2
20:26 12.4 °C 9.1 °C 1011.1 hPa West 16.1 km/h 25.7 km/h 80 % 0 mm 0 W/m2
20:31 12.4 °C 9.1 °C 1011.1 hPa West 17.7 km/h 33.8 km/h 80 % 0 mm 0 W/m2
20:36 12.3 °C 8.9 °C 1011.1 hPa West 17.7 km/h 33.8 km/h 80 % 0 mm 0 W/m2
20:41 12.3 °C 8.9 °C 1011.1 hPa West 17.7 km/h 29 km/h 80 % 0 mm 0 W/m2
20:42 12.3 °C 8.9 °C 1011.1 hPa West 17.7 km/h 33.8 km/h 80 % 0 mm 0 W/m2
20:47 12.4 °C 9.2 °C 1011.1 hPa West 19.3 km/h 33.8 km/h 81 % 0 mm 0 W/m2
20:52 12.4 °C 9.2 °C 1011.1 hPa West 19.3 km/h 33.8 km/h 81 % 0 mm 0 W/m2
20:57 12.4 °C 9.4 °C 1011.4 hPa West 17.7 km/h 40.2 km/h 82 % 0 mm 0 W/m2
21:02 12.3 °C 9.3 °C 1011.4 hPa West 19.3 km/h 40.2 km/h 82 % 0 mm 0 W/m2
21:07 12.2 °C 9.4 °C 1011.4 hPa WNW 20.9 km/h 35.4 km/h 83 % 0 mm 0 W/m2
21:12 12.2 °C 9.8 °C 1011.7 hPa WNW 16.1 km/h 29 km/h 85 % 0.25 mm 0 W/m2
21:17 12.1 °C 9.8 °C 1011.7 hPa WNW 12.9 km/h 25.7 km/h 86 % 0.25 mm 0 W/m2
21:22 11.8 °C 9.7 °C 1011.7 hPa NW 12.9 km/h 22.5 km/h 87 % 0.25 mm 0 W/m2
21:27 11.6 °C 9.7 °C 1011.7 hPa NW 12.9 km/h 22.5 km/h 88 % 0.25 mm 0 W/m2
21:32 11.4 °C 9.5 °C 1011.7 hPa NW 9.7 km/h 17.7 km/h 88 % 0.25 mm 0 W/m2
21:37 11.2 °C 9.3 °C 1012.1 hPa NW 12.9 km/h 30.6 km/h 88 % 0.51 mm 0 W/m2
21:42 11.2 °C 9.4 °C 1011.7 hPa NW 16.1 km/h 30.6 km/h 89 % 0.51 mm 0 W/m2
21:47 11.2 °C 9.4 °C 1011.7 hPa WNW 12.9 km/h 25.7 km/h 89 % 0.51 mm 0 W/m2
21:52 11.1 °C 9.3 °C 1011.7 hPa West 11.3 km/h 22.5 km/h 89 % 0.51 mm 0 W/m2
21:57 11.1 °C 9.3 °C 1011.7 hPa West 9.7 km/h 19.3 km/h 89 % 0.51 mm 0 W/m2
22:02 11 °C 9.4 °C 1012.1 hPa West 9.7 km/h 19.3 km/h 90 % 0.51 mm 0 W/m2
22:07 10.9 °C 9.3 °C 1012.1 hPa West 11.3 km/h 19.3 km/h 90 % 0.51 mm 0 W/m2
22:12 10.9 °C 9.3 °C 1011.7 hPa West 12.9 km/h 29 km/h 90 % 0.51 mm 0 W/m2
22:17 10.9 °C 9.2 °C 1012.1 hPa West 14.5 km/h 29 km/h 89 % 0.51 mm 0 W/m2
22:22 10.9 °C 9.2 °C 1012.1 hPa West 14.5 km/h 29 km/h 89 % 0.51 mm 0 W/m2
22:24 10.9 °C 9 °C 1012.1 hPa West 14.5 km/h 29 km/h 88 % 0.51 mm 0 W/m2
22:29 11 °C 9.1 °C 1012.1 hPa West 16.1 km/h 30.6 km/h 88 % 0.51 mm 0 W/m2
22:34 11.1 °C 9.2 °C 1012.4 hPa West 16.1 km/h 30.6 km/h 88 % 0.51 mm 0 W/m2
22:39 11.1 °C 9 °C 1012.4 hPa WNW 14.5 km/h 24.1 km/h 87 % 0 mm 0 W/m2
22:44 11.1 °C 9 °C 1012.4 hPa WNW 14.5 km/h 24.1 km/h 87 % 0 mm 0 W/m2
22:49 11.1 °C 9 °C 1012.8 hPa WNW 11.3 km/h 24.1 km/h 87 % 0 mm 0 W/m2
22:54 11 °C 8.9 °C 1012.8 hPa WNW 11.3 km/h 22.5 km/h 87 % 0 mm 0 W/m2
22:59 11 °C 9.1 °C 1012.8 hPa WNW 12.9 km/h 22.5 km/h 88 % 0 mm 0 W/m2
23:04 11 °C 8.9 °C 1012.8 hPa WNW 12.9 km/h 24.1 km/h 87 % 0 mm 0 W/m2
23:09 11.1 °C 9 °C 1012.8 hPa WNW 14.5 km/h 24.1 km/h 87 % 0 mm 0 W/m2
23:14 11 °C 8.9 °C 1012.8 hPa WNW 14.5 km/h 24.1 km/h 87 % 0 mm 0 W/m2
23:19 11 °C 8.9 °C 1012.8 hPa WNW 14.5 km/h 25.7 km/h 87 % 0 mm 0 W/m2
23:24 10.9 °C 8.8 °C 1013.1 hPa WNW 16.1 km/h 30.6 km/h 87 % 0 mm 0 W/m2
23:29 10.9 °C 8.7 °C 1012.8 hPa WNW 16.1 km/h 30.6 km/h 86 % 0 mm 0 W/m2
23:34 10.9 °C 8.7 °C 1012.8 hPa WNW 14.5 km/h 25.7 km/h 86 % 0 mm 0 W/m2
23:39 10.8 °C 8.6 °C 1013.1 hPa WNW 14.5 km/h 25.7 km/h 86 % 0 mm 0 W/m2
23:44 10.8 °C 8.6 °C 1013.1 hPa WNW 12.9 km/h 24.1 km/h 86 % 0 mm 0 W/m2
23:49 10.7 °C 8.4 °C 1012.8 hPa WNW 14.5 km/h 29 km/h 86 % 0 mm 0 W/m2
23:54 10.7 °C 8.3 °C 1012.8 hPa WNW 17.7 km/h 38.6 km/h 85 % 0 mm 0 W/m2
23:59 10.7 °C 8.3 °C 1013.1 hPa WNW 17.7 km/h 38.6 km/h 85 % 0 mm 0 W/m2
Delerius-Weather
Compliments of Weather Underground - 2.25 mb

Data updates at regular intervals.